| time (UTC) | temp F | wind direction | speed knots | gust knots | rain 1hr in | rain 24hr in | rain mn in | humidity % | barometer mb |
| 20260504081550 | 63 | 123 | 3.5 | 7.0 | 0.00 | 0.12 | 0.00 | 42 | 1019.1 |
| 20260504081031 | 63 | 128 | 4.3 | 7.0 | 0.00 | 0.12 | 0.00 | 43 | 1019.1 |
| 20260504080542 | 63 | 115 | 1.7 | 7.0 | 0.00 | 0.12 | 0.00 | 43 | 1019.1 |
| 20260504050537 | 52 | 34 | 4.3 | 10.4 | 0.00 | 0.12 | 0.00 | 58 | 1019.3 |
| 20260504045532 | 51 | 51 | 5.2 | 11.3 | 0.00 | 0.12 | 0.00 | 58 | 1019.4 |
| 20260504045031 | 51 | 28 | 6.1 | 11.3 | 0.00 | 0.12 | 0.00 | 58 | 1019.3 |
| 20260504044528 | 51 | 64 | 7.0 | 12.2 | 0.00 | 0.12 | 0.00 | 59 | 1019.3 |
| 20260504044038 | 51 | 20 | 6.1 | 11.3 | 0.00 | 0.12 | 0.00 | 59 | 1019.3 |
| 20260504043532 | 51 | 25 | 5.2 | 10.4 | 0.00 | 0.12 | 0.00 | 58 | 1019.3 |
| 20260504043032 | 50 | 30 | 6.1 | 13.0 | 0.00 | 0.12 | 0.00 | 59 | 1019.2 |
| 20260504042538 | 50 | 17 | 7.0 | 13.0 | 0.00 | 0.12 | 0.00 | 59 | 1019.2 |
| 20260504042105 | 50 | 18 | 7.0 | 12.2 | 0.00 | 0.12 | 0.00 | 59 | 1019.3 |
| 20260504041540 | 50 | 46 | 6.1 | 14.8 | 0.00 | 0.12 | 0.00 | 59 | 1019.3 |
| 20260504041036 | 50 | 13 | 7.8 | 11.3 | 0.00 | 0.12 | 0.00 | 58 | 1019.3 |
| 20260504040529 | 50 | 32 | 6.1 | 11.3 | 0.00 | 0.12 | 0.00 | 58 | 1019.3 |
| 20260504040035 | 49 | 19 | 5.2 | 10.4 | 0.00 | 0.12 | 0.00 | 59 | 1019.3 |
| 20260504035538 | 50 | 24 | 5.2 | 9.6 | 0.00 | 0.12 | 0.00 | 59 | 1019.3 |
| 20260504035033 | 50 | 24 | 3.5 | 7.8 | 0.00 | 0.12 | 0.00 | 59 | 1019.3 |
| 20260504034546 | 50 | 13 | 4.3 | 7.8 | 0.00 | 0.12 | 0.00 | 59 | 1019.4 |
| 20260504034107 | 50 | 47 | 3.5 | 7.8 | 0.00 | 0.12 | 0.00 | 59 | 1019.2 |
| 20260504033529 | 49 | 46 | 3.5 | 8.7 | 0.00 | 0.12 | 0.00 | 60 | 1019.2 |
| 20260504033038 | 49 | 9 | 4.3 | 8.7 | 0.00 | 0.12 | 0.00 | 60 | 1019.2 |
| 20260504032532 | 49 | 40 | 4.3 | 7.8 | 0.00 | 0.12 | 0.00 | 60 | 1019.1 |
| 20260504032039 | 49 | 5 | 3.5 | 9.6 | 0.00 | 0.12 | 0.00 | 60 | 1019.0 |
| 20260504031529 | 49 | 5 | 4.3 | 9.6 | 0.00 | 0.12 | 0.00 | 60 | 1018.9 |
| 20260504031030 | 49 | 82 | 3.5 | 7.8 | 0.00 | 0.12 | 0.00 | 61 | 1018.9 |
| 20260504030544 | 49 | 39 | 2.6 | 5.2 | 0.00 | 0.12 | 0.00 | 61 | 1019.0 |
| 20260504030034 | 49 | 11 | 1.7 | 5.2 | 0.00 | 0.12 | 0.00 | 61 | 1019.0 |
| 20260504025539 | 49 | 28 | 2.6 | 5.2 | 0.00 | 0.12 | 0.00 | 61 | 1019.0 |
| 20260504025045 | 49 | 5 | 2.6 | 5.2 | 0.00 | 0.12 | 0.00 | 60 | 1019.0 |
| 20260504024554 | 49 | 28 | 1.7 | 7.0 | 0.00 | 0.12 | 0.00 | 60 | 1018.9 |
| 20260504024027 | 49 | 17 | 4.3 | 7.0 | 0.00 | 0.12 | 0.00 | 60 | 1018.9 |
| 20260504023538 | 49 | 19 | 2.6 | 5.2 | 0.00 | 0.12 | 0.00 | 59 | 1019.0 |
| 20260504023028 | 49 | 5 | 0.9 | 4.3 | 0.00 | 0.12 | 0.00 | 59 | 1018.9 |
| 20260504022600 | 49 | 5 | 1.7 | 5.2 | 0.00 | 0.12 | 0.00 | 58 | 1018.9 |
| 20260504022036 | 49 | 38 | 2.6 | 7.0 | 0.00 | 0.12 | 0.00 | 58 | 1018.7 |
| 20260504021550 | 49 | 15 | 2.6 | 7.0 | 0.00 | 0.12 | 0.00 | 56 | 1018.8 |
| 20260504021044 | 50 | 23 | 3.5 | 7.8 | 0.00 | 0.12 | 0.00 | 56 | 1018.7 |
| 20260504020543 | 50 | 30 | 2.6 | 7.8 | 0.00 | 0.12 | 0.00 | 55 | 1018.7 |
| 20260504020045 | 50 | 18 | 2.6 | 7.0 | 0.00 | 0.12 | 0.00 | 54 | 1018.7 |
| 20260504015534 | 50 | 360 | 3.5 | 7.0 | 0.00 | 0.12 | 0.00 | 54 | 1018.7 |
| 20260504015047 | 50 | 22 | 4.3 | 7.0 | 0.00 | 0.12 | 0.00 | 53 | 1018.7 |
| 20260504014539 | 50 | 14 | 3.5 | 7.0 | 0.00 | 0.12 | 0.00 | 53 | 1018.6 |
| 20260504014045 | 50 | 31 | 2.6 | 7.0 | 0.00 | 0.12 | 0.00 | 53 | 1018.5 |
| 20260504013541 | 50 | 28 | 3.5 | 7.0 | 0.00 | 0.12 | 0.00 | 54 | 1018.5 |
| 20260504013038 | 50 | 24 | 3.5 | 7.8 | 0.00 | 0.12 | 0.00 | 54 | 1018.5 |
| 20260504012614 | 50 | 26 | 3.5 | 9.6 | 0.00 | 0.12 | 0.00 | 54 | 1018.6 |
| 20260504012129 | 50 | 41 | 5.2 | 8.7 | 0.00 | 0.12 | 0.00 | 53 | 1018.5 |
| 20260504011546 | 50 | 11 | 4.3 | 8.7 | 0.00 | 0.12 | 0.00 | 53 | 1018.6 |
| 20260504011059 | 50 | 351 | 2.6 | 6.1 | 0.00 | 0.12 | 0.00 | 53 | 1018.5 |
| 20260504010534 | 50 | 324 | 2.6 | 7.8 | 0.00 | 0.12 | 0.00 | 53 | 1018.4 |
| 20260504010036 | 50 | 12 | 2.6 | 7.8 | 0.00 | 0.12 | 0.00 | 52 | 1018.4 |
| 20260504005546 | 50 | 13 | 3.5 | 7.8 | 0.00 | 0.12 | 0.00 | 52 | 1018.4 |
| 20260504005056 | 50 | 347 | 2.6 | 10.4 | 0.00 | 0.12 | 0.00 | 52 | 1018.3 |
| 20260504004551 | 50 | 32 | 3.5 | 10.4 | 0.00 | 0.12 | 0.00 | 53 | 1018.3 |
| 20260504004045 | 50 | 30 | 3.5 | 10.4 | 0.00 | 0.12 | 0.00 | 52 | 1018.2 |
| 20260504003534 | 50 | 55 | 5.2 | 10.4 | 0.00 | 0.12 | 0.00 | 53 | 1018.1 |
| 20260504003028 | 50 | 360 | 4.3 | 13.0 | 0.00 | 0.12 | 0.00 | 53 | 1018.1 |
| 20260504002600 | 50 | 44 | 6.1 | 13.0 | 0.00 | 0.12 | 0.00 | 53 | 1018.1 |
| 20260504002128 | 50 | 17 | 5.2 | 10.4 | 0.00 | 0.12 | 0.00 | 53 | 1018.1 |
| 20260504001535 | 50 | 17 | 7.0 | 10.4 | 0.00 | 0.12 | 0.00 | 53 | 1018.1 |
| 20260504001042 | 50 | 9 | 5.2 | 9.6 | 0.00 | 0.12 | 0.00 | 53 | 1018.2 |
| 20260504000532 | 50 | 46 | 5.2 | 8.7 | 0.00 | 0.12 | 0.00 | 54 | 1018.3 |
| 20260504000032 | 50 | 5 | 5.2 | 8.7 | 0.00 | 0.12 | 0.00 | 54 | 1018.4 |
| 20260503235549 | 50 | 52 | 5.2 | 8.7 | 0.00 | 0.12 | 0.00 | 54 | 1018.4 |
| 20260503235030 | 50 | 5 | 5.2 | 7.0 | 0.00 | 0.12 | 0.00 | 54 | 1018.4 |
| 20260503234545 | 50 | 355 | 3.5 | 7.0 | 0.00 | 0.12 | 0.00 | 54 | 1018.4 |
| 20260503234027 | 50 | 20 | 4.3 | 7.0 | 0.00 | 0.12 | 0.00 | 54 | 1018.4 |
| 20260503233600 | 50 | 29 | 3.5 | 7.0 | 0.00 | 0.12 | 0.00 | 54 | 1018.5 |
| 20260503233039 | 50 | 360 | 2.6 | 7.0 | 0.00 | 0.12 | 0.00 | 54 | 1018.6 |
| 20260503232530 | 50 | 33 | 3.5 | 7.0 | 0.00 | 0.12 | 0.00 | 53 | 1018.7 |
| 20260503232034 | 51 | 23 | 3.5 | 7.0 | 0.00 | 0.12 | 0.00 | 53 | 1018.8 |
| 20260503231538 | 51 | 26 | 3.5 | 5.2 | 0.00 | 0.12 | 0.00 | 53 | 1018.9 |
| 20260503231031 | 51 | 28 | 3.5 | 7.8 | 0.00 | 0.12 | 0.00 | 53 | 1018.8 |
| 20260503230544 | 51 | 15 | 3.5 | 7.8 | 0.00 | 0.12 | 0.00 | 53 | 1018.9 |
| 20260503230044 | 51 | 11 | 4.3 | 7.0 | 0.00 | 0.12 | 0.00 | 53 | 1018.8 |
| 20260503225558 | 51 | 37 | 4.3 | 7.0 | 0.00 | 0.12 | 0.00 | 53 | 1018.9 |
| 20260503225028 | 51 | 33 | 2.6 | 8.7 | 0.00 | 0.12 | 0.00 | 53 | 1018.8 |
| 20260503224533 | 51 | 34 | 2.6 | 8.7 | 0.00 | 0.12 | 0.00 | 52 | 1018.8 |
| 20260503224040 | 51 | 20 | 3.5 | 7.0 | 0.00 | 0.12 | 0.00 | 52 | 1018.8 |
| 20260503223554 | 51 | 32 | 2.6 | 7.0 | 0.00 | 0.12 | 0.00 | 52 | 1018.7 |
| 20260503223134 | 51 | 27 | 2.6 | 5.2 | 0.00 | 0.12 | 0.00 | 51 | 1018.7 |
| 20260503222549 | 52 | 355 | 2.6 | 6.1 | 0.00 | 0.12 | 0.00 | 50 | 1018.8 |
| 20260503222033 | 52 | 54 | 3.5 | 6.1 | 0.00 | 0.12 | 0.00 | 49 | 1018.7 |
| 20260503221544 | 52 | 61 | 3.5 | 6.1 | 0.00 | 0.12 | 0.00 | 50 | 1018.8 |
| 20260503221033 | 52 | 67 | 3.5 | 6.1 | 0.00 | 0.12 | 0.00 | 50 | 1018.7 |
| 20260503220538 | 52 | 49 | 3.5 | 6.1 | 0.00 | 0.12 | 0.00 | 50 | 1018.7 |
| 20260503220042 | 52 | 38 | 2.6 | 7.0 | 0.00 | 0.12 | 0.00 | 50 | 1018.7 |
| 20260503215534 | 52 | 34 | 4.3 | 7.0 | 0.00 | 0.12 | 0.00 | 50 | 1018.7 |
| 20260503215040 | 52 | 12 | 4.3 | 7.0 | 0.00 | 0.12 | 0.00 | 50 | 1018.8 |
| 20260503214603 | 52 | 333 | 3.5 | 6.1 | 0.00 | 0.12 | 0.00 | 51 | 1018.6 |
| 20260503214030 | 51 | 30 | 3.5 | 6.1 | 0.00 | 0.12 | 0.00 | 52 | 1018.7 |
| 20260503213548 | 51 | 12 | 2.6 | 4.3 | 0.00 | 0.12 | 0.00 | 52 | 1018.7 |
| 20260503213037 | 52 | 69 | 1.7 | 7.0 | 0.00 | 0.12 | 0.00 | 52 | 1018.6 |
| 20260503212554 | 51 | 57 | 3.5 | 7.0 | 0.00 | 0.12 | 0.00 | 52 | 1018.6 |
| 20260503212041 | 52 | 35 | 2.6 | 6.1 | 0.00 | 0.12 | 0.00 | 51 | 1018.6 |
| 20260503211537 | 52 | 74 | 3.5 | 6.1 | 0.00 | 0.12 | 0.00 | 51 | 1018.8 |
| 20260503211029 | 52 | 38 | 0.9 | 7.0 | 0.00 | 0.12 | 0.00 | 51 | 1018.8 |
| 20260503210533 | 52 | 38 | 2.6 | 7.0 | 0.00 | 0.12 | 0.00 | 51 | 1018.8 |
| 20260503210044 | 52 | 85 | 3.5 | 6.1 | 0.00 | 0.12 | 0.02 | 51 | 1018.8 |
| 20260503205545 | 52 | 42 | 1.7 | 5.2 | 0.00 | 0.12 | 0.02 | 51 | 1018.8 |
| 20260503205041 | 52 | 50 | 2.6 | 5.2 | 0.00 | 0.12 | 0.02 | 51 | 1018.8 |
| 20260503204557 | 53 | 98 | 1.7 | 7.8 | 0.00 | 0.12 | 0.02 | 50 | 1018.8 |
| 20260503204032 | 53 | 15 | 4.3 | 7.0 | 0.00 | 0.12 | 0.02 | 50 | 1018.6 |
| 20260503203543 | 52 | 22 | 2.6 | 7.0 | 0.00 | 0.12 | 0.02 | 52 | 1018.6 |
| 20260503203055 | 53 | 337 | 4.3 | 7.0 | 0.00 | 0.12 | 0.02 | 51 | 1018.5 |
| 20260503202547 | 53 | 331 | 3.5 | 7.0 | 0.00 | 0.12 | 0.02 | 49 | 1018.6 |
| 20260503202047 | 54 | 346 | 4.3 | 7.0 | 0.00 | 0.12 | 0.02 | 49 | 1018.5 |
| 20260503201535 | 54 | 339 | 4.3 | 7.0 | 0.00 | 0.12 | 0.02 | 49 | 1018.6 |
| 20260503201106 | 54 | 336 | 4.3 | 7.0 | 0.00 | 0.12 | 0.02 | 50 | 1018.6 |
| 20260503200532 | 54 | 31 | 2.6 | 7.0 | 0.00 | 0.12 | 0.02 | 51 | 1018.6 |
| 20260503200054 | 54 | 340 | 3.5 | 5.2 | 0.00 | 0.12 | 0.02 | 51 | 1018.6 |
| 20260503195552 | 55 | 355 | 2.6 | 6.1 | 0.00 | 0.12 | 0.02 | 49 | 1018.6 |
| 20260503195052 | 55 | 302 | 3.5 | 6.1 | 0.00 | 0.12 | 0.02 | 49 | 1018.4 |
| 20260503194544 | 55 | 275 | 3.5 | 7.8 | 0.00 | 0.12 | 0.02 | 49 | 1018.3 |
| 20260503194110 | 55 | 315 | 4.3 | 7.8 | 0.00 | 0.12 | 0.02 | 48 | 1018.4 |
| 20260503193536 | 55 | 355 | 2.6 | 6.1 | 0.00 | 0.12 | 0.02 | 48 | 1018.2 |
| 20260503193041 | 55 | 336 | 2.6 | 4.3 | 0.00 | 0.12 | 0.02 | 49 | 1018.2 |
| 20260503192530 | 55 | 301 | 1.7 | 3.5 | 0.00 | 0.12 | 0.02 | 48 | 1018.1 |
| 20260503192055 | 55 | 105 | 1.7 | 3.5 | 0.00 | 0.12 | 0.02 | 49 | 1018.0 |
| 20260503191545 | 55 | 51 | 0.9 | 2.6 | 0.00 | 0.12 | 0.02 | 50 | 1017.8 |
| 20260503191047 | 55 | 355 | 0.9 | 3.5 | 0.00 | 0.12 | 0.02 | 51 | 1017.7 |
| 20260503190546 | 55 | 36 | 2.6 | 3.5 | 0.00 | 0.12 | 0.02 | 51 | 1017.7 |
| 20260503190047 | 55 | 26 | 0.9 | 3.5 | 0.00 | 0.12 | 0.02 | 52 | 1017.8 |
| 20260503185533 | 55 | 22 | 1.7 | 4.3 | 0.00 | 0.12 | 0.02 | 52 | 1017.9 |
| 20260503185046 | 55 | 32 | 1.7 | 4.3 | 0.00 | 0.12 | 0.02 | 53 | 1017.8 |
| 20260503184532 | 55 | 19 | 1.7 | 4.3 | 0.00 | 0.12 | 0.02 | 53 | 1017.8 |
| 20260503184046 | 55 | 351 | 2.6 | 5.2 | 0.00 | 0.12 | 0.02 | 54 | 1017.7 |
| 20260503183538 | 55 | 343 | 2.6 | 6.1 | 0.00 | 0.12 | 0.02 | 53 | 1017.7 |
| 20260503183103 | 55 | 338 | 1.7 | 6.1 | 0.00 | 0.12 | 0.02 | 53 | 1017.6 |
| 20260503182531 | 55 | 46 | 3.5 | 6.1 | 0.00 | 0.12 | 0.02 | 53 | 1017.5 |
| 20260503182053 | 55 | 73 | 3.5 | 7.8 | 0.00 | 0.12 | 0.02 | 54 | 1017.5 |
| 20260503181547 | 55 | 29 | 4.3 | 7.8 | 0.00 | 0.12 | 0.02 | 56 | 1017.5 |
| 20260503181037 | 55 | 14 | 4.3 | 7.0 | 0.00 | 0.12 | 0.02 | 55 | 1017.5 |
| 20260503180556 | 55 | 61 | 3.5 | 5.2 | 0.00 | 0.12 | 0.02 | 55 | 1017.4 |
| 20260503180045 | 55 | 330 | 0.9 | 5.2 | 0.00 | 0.12 | 0.02 | 55 | 1017.3 |
| 20260503175531 | 55 | 336 | 2.6 | 6.1 | 0.00 | 0.12 | 0.02 | 56 | 1017.2 |
| 20260503175032 | 55 | 360 | 3.5 | 5.2 | 0.00 | 0.12 | 0.02 | 56 | 1017.1 |
| 20260503174544 | 55 | 330 | 2.6 | 7.0 | 0.00 | 0.12 | 0.02 | 56 | 1016.8 |
| 20260503174034 | 55 | 23 | 4.3 | 7.0 | 0.00 | 0.12 | 0.02 | 56 | 1016.7 |
| 20260503173550 | 56 | 10 | 4.3 | 7.8 | 0.00 | 0.12 | 0.02 | 55 | 1016.7 |
| 20260503173033 | 56 | 60 | 4.3 | 7.8 | 0.00 | 0.12 | 0.02 | 55 | 1016.5 |
| 20260503172548 | 56 | 360 | 2.6 | 6.1 | 0.00 | 0.12 | 0.02 | 55 | 1016.5 |
| 20260503172033 | 57 | 342 | 2.6 | 6.1 | 0.00 | 0.12 | 0.02 | 54 | 1016.3 |
| 20260503171549 | 57 | 32 | 2.6 | 7.0 | 0.00 | 0.12 | 0.02 | 53 | 1016.2 |
| 20260503171044 | 58 | 15 | 4.3 | 7.0 | 0.00 | 0.12 | 0.02 | 52 | 1016.0 |
| 20260503170532 | 58 | 11 | 2.6 | 7.8 | 0.00 | 0.12 | 0.02 | 53 | 1015.9 |
| 20260503150534 | 60 | 37 | 8.7 | 17.4 | 0.00 | 0.12 | 0.02 | 48 | 1015.0 |
| 20260503131028 | 55 | 44 | 8.7 | 17.4 | 0.12 | 0.12 | 0.02 | 69 | 1014.5 |
| 20260503130536 | 56 | 17 | 10.4 | 17.4 | 0.12 | 0.12 | 0.02 | 69 | 1014.3 |
| 20260503110539 | 65 | 121 | 4.3 | 10.4 | 0.00 | 0.00 | 0.00 | 54 | 1013.1 |